Theta_e
290 290 291 291 291 292 293 292 292 294 294 294 294 294 294 295 296 296 296 296 296 295 295 296 297 297 297 296 298 297 297 296 295 297 299 300 299 300 300 300 299 299 300 302 302 302 301 302 302 302 302 302 302 302
290 290 290 291 291 292 292 291 292 294 294 294 293 293 294 294 295 295 296 296 295 295 295 296 296 296 296 297 297 296 296 296 296 298 299 299 299 299 299 300 300 300 301 302 301 302 301 300 301 301 301 302 302 301
291 290 290 291 291 291 292 292 293 293 293 292 292 293 293 294 294 294 296 295 294 293 294 295 295 295 295 295 296 296 297 296 295 295 296 298 298 298 299 300 300 300 300 301 301 301 301 300 300 301 301 301 301 302
289 290 291 291 290 291 292 292 292 292 292 292 292 293 293 293 294 294 294 294 294 295 295 296 295 295 296 295 296 295 295 295 295 295 296 297 297 297 298 299 299 299 300 300 300 300 300 301 301 301 301 301 301 301
288 288 289 290 291 291 290 291 291 291 291 291 291 291 291 292 292 293 293 294 293 294 296 296 295 294 295 294 295 295 295 295 295 295 296 296 295 296 296 298 299 298 299 300 301 301 302 300 300 300 301 301 301 300
286 286 288 288 289 290 290 291 290 290 290 290 290 290 291 291 292 293 292 293 293 293 293 295 296 295 294 295 295 294 295 294 295 294 294 295 294 296 298 298 298 299 299 299 300 300 300 300 300 301 301 300 300 300
289 288 287 286 287 288 289 290 290 291 291 291 291 290 290 290 291 293 294 293 292 293 292 295 296 295 294 294 293 294 294 294 294 294 293 294 295 295 297 298 297 297 298 299 299 300 300 300 301 301 300 299 299 299
289 289 288 288 287 287 286 287 288 289 290 290 291 291 291 291 291 292 292 291 291 293 293 296 296 295 294 295 294 292 293 293 293 293 294 295 295 295 298 297 297 297 298 299 299 299 300 301 300 299 298 298 298 297
285 286 286 287 288 288 287 287 286 287 288 288 289 291 291 291 292 292 292 292 291 293 295 294 295 297 294 295 295 293 293 295 293 294 295 296 298 299 298 298 298 298 298 299 300 300 300 300 299 298 297 297 296 295
285 285 287 287 286 289 288 287 286 286 288 288 289 292 291 292 292 291 292 292 292 292 292 294 294 296 295 296 297 297 295 297 299 298 296 298 298 297 297 298 298 298 299 299 300 300 300 299 299 297 296 295 294 293
285 286 286 286 287 286 288 288 286 286 288 290 291 291 292 290 291 293 294 294 294 295 293 293 293 294 294 296 297 297 298 298 298 299 299 300 300 301 300 301 300 300 300 299 300 300 299 298 297 295 294 294 293 292
285 285 285 285 286 287 286 288 286 288 290 290 291 290 290 291 292 294 294 293 294 295 295 295 295 294 295 294 294 296 296 297 297 299 299 299 300 300 301 300 300 301 300 300 299 298 296 295 294 293 293 293 293 292
285 284 284 285 287 286 287 288 286 288 288 288 289 291 291 291 293 294 294 295 296 295 296 295 296 295 295 294 294 296 298 298 298 300 299 299 299 300 301 299 300 299 299 298 297 296 295 294 293 293 293 292 292 291
284 284 285 286 287 286 287 288 287 287 288 290 290 290 291 293 293 293 293 295 295 296 296 296 296 295 294 295 296 297 298 299 299 298 298 302 300 300 300 300 299 298 298 297 296 295 294 294 293 293 292 290 290 290
284 284 285 285 286 286 286 286 287 287 288 290 290 290 291 291 292 293 294 294 294 295 295 295 296 297 297 297 298 297 298 298 298 299 300 299 298 299 299 298 298 297 296 295 294 293 292 291 291 291 290 290 290 290
285 285 286 285 285 285 285 285 286 287 288 289 289 290 290 292 292 292 292 293 293 294 294 294 295 295 296 297 298 299 298 297 298 300 298 298 297 298 298 298 297 296 295 294 293 293 292 291 290 290 290 289 289 289
283 286 285 284 284 284 284 286 287 287 289 289 289 289 290 290 291 292 292 292 292 292 293 294 295 294 296 296 296 297 298 299 297 296 295 296 296 296 297 297 296 295 294 293 293 293 292 291 290 289 288 288 288 288
285 286 284 284 284 286 286 286 286 287 289 288 289 290 290 291 291 291 291 291 291 291 291 292 293 293 293 294 296 297 294 294 294 293 293 294 295 295 295 295 295 295 294 293 293 292 291 290 290 290 290 288 287 287
285 285 284 282 283 285 286 286 286 287 287 288 289 289 289 289 290 290 290 290 289 289 290 290 291 292 293 293 294 294 294 294 293 292 292 293 294 294 292 292 291 292 291 292 292 291 291 290 288 288 287 287 287 287
282 282 282 282 283 284 285 286 287 287 288 288 288 288 289 289 289 289 289 289 289 289 289 290 291 291 292 291 291 291 291 292 292 291 291 292 292 292 292 293 293 293 292 291 290 290 288 288 288 288 287 286 285 284
284 284 284 283 284 284 285 286 286 287 287 287 287 287 288 288 288 288 288 288 288 289 289 289 289 289 288 289 289 289 290 290 290 290 291 291 291 291 292 292 292 292 292 291 290 290 288 287 287 286 284 284 283 283
284 283 284 284 284 284 285 285 285 285 286 286 286 287 287 288 288 288 288 288 289 288 288 288 288 288 287 287 289 288 288 289 290 290 290 290 290 291 291 292 292 291 290 289 289 288 287 286 285 283 282 282 281 282
283 283 283 284 284 284 284 284 284 284 286 286 286 286 287 287 287 287 287 287 287 287 287 287 287 286 286 286 286 286 287 288 288 289 289 290 290 291 291 291 291 290 289 288 286 285 284 284 282 281 279 279 280 280
283 283 284 284 284 284 284 284 284 284 285 286 286 286 287 286 286 287 288 287 287 286 286 286 286 287 287 287 288 287 287 288 289 289 289 290 291 290 288 288 287 286 285 285 284 283 281 280 279 279 278 278 279 279
284 283 283 283 284 284 285 285 284 285 285 286 286 286 286 286 287 287 288 286 286 285 286 287 286 286 286 286 288 288 289 289 289 289 290 289 288 288 286 286 284 284 283 282 281 281 280 279 278 277 277 277 277 277
284 283 283 283 284 284 285 284 285 285 285 285 286 285 285 287 286 286 286 285 285 286 286 286 285 285 286 286 287 287 287 287 287 287 288 288 286 286 286 285 284 284 282 280 280 279 279 278 277 277 277 277 277 277
283 283 283 283 283 283 284 284 284 285 285 285 285 285 285 285 285 285 284 285 286 286 285 285 285 285 285 285 285 284 285 285 285 286 286 285 284 284 284 284 284 283 281 280 279 279 277 276 276 276 276 276 276 276
282 283 284 283 283 283 284 284 284 284 285 284 284 284 284 284 285 284 285 285 285 285 283 284 284 283 285 284 284 284 284 285 284 284 284 283 283 283 282 282 280 280 279 278 278 276 276 276 276 276 276 276 276 276
283 283 283 283 282 283 283 284 284 283 283 283 285 285 286 284 284 284 284 284 285 283 283 284 284 285 284 284 284 283 283 283 282 283 283 284 282 281 281 279 279 279 278 277 276 276 276 276 276 276 276 276 276 276
283 283 283 283 284 283 283 282 282 283 283 283 283 283 283 283 283 283 284 284 284 284 283 282 282 284 284 283 282 282 283 282 282 282 283 283 282 281 280 279 278 278 277 276 276 276 276 276 275 275 275 275 275 275
283 283 283 283 284 283 283 283 283 282 282 282 282 283 283 283 282 282 283 283 283 282 282 283 283 282 282 283 282 282 281 281 281 281 281 281 280 279 278 277 277 276 275 275 275 275 275 275 274 274 274 274 275 275
283 283 284 283 284 283 283 283 283 283 283 283 283 282 282 282 283 283 283 283 283 283 282 282 282 283 282 282 281 281 281 281 280 279 278 277 277 276 275 275 275 275 275 275 275 275 274 274 274 274 274 274 275 275
283 283 283 283 283 283 283 283 282 282 282 282 283 283 283 283 283 283 283 283 282 282 282 282 281 282 281 281 281 280 279 278 278 277 276 276 275 275 275 275 275 274 274 274 274 274 274 273 273 273 273 274 274 275
Wind_Speed
8 8 7 9 13 11 11 8 13 23 20 18 16 18 16 14 14 16 12 13 8 7 17 14 11 13 9 7 4 1 4 4 3 4 3 4 5 5 6 10 10 9 7 5 5 4 8 12 23 12 15 23 13 19
9 8 8 8 10 11 10 7 15 21 17 17 16 18 16 15 14 14 17 12 13 15 12 8 10 16 20 17 10 10 8 2 9 4 4 3 5 4 10 10 6 6 5 5 6 9 26 25 16 18 20 15 18 21
9 8 9 8 8 9 10 8 11 16 15 15 12 12 19 15 16 16 15 12 13 15 25 25 22 18 26 25 21 17 13 16 16 14 9 4 7 8 10 10 13 15 19 8 12 12 17 25 21 20 15 21 25 26
9 8 7 7 7 10 11 11 10 11 11 11 11 12 14 15 14 14 15 14 11 6 7 6 7 12 13 14 21 24 21 8 12 12 10 6 7 11 11 14 15 15 18 17 19 21 23 18 13 17 18 20 19 18
11 10 9 8 7 6 8 10 10 10 10 10 10 9 12 16 16 16 17 18 16 12 5 10 16 22 20 14 16 19 22 20 11 9 7 7 18 13 17 15 16 21 18 13 13 19 11 18 18 21 21 17 16 16
10 10 10 9 9 7 7 7 8 8 8 9 10 10 9 10 12 13 8 15 21 16 6 4 4 8 5 14 19 16 18 21 15 8 10 14 21 9 7 11 21 22 23 24 18 20 21 21 21 19 13 15 17 17
8 7 7 7 8 9 9 8 8 7 7 6 8 8 9 11 12 13 4 1 7 18 2 5 5 4 8 9 9 10 13 10 14 8 14 22 19 9 10 18 30 29 27 20 18 18 22 21 13 10 15 17 15 14
9 8 6 5 5 4 5 9 11 11 10 8 6 7 8 12 13 19 17 12 5 11 6 3 4 4 13 8 6 8 8 10 10 12 12 14 15 14 7 22 23 25 24 21 19 17 15 7 13 12 10 12 13 12
8 9 10 10 8 6 4 3 4 7 10 9 10 6 5 10 9 12 13 13 14 11 5 7 4 2 10 11 7 9 9 6 9 9 12 7 8 8 16 19 17 17 20 18 15 12 11 9 12 9 9 9 10 10
7 7 6 5 12 9 8 4 2 5 6 7 7 5 5 6 11 4 8 8 11 9 11 9 17 7 7 10 9 6 10 6 5 9 10 6 14 34 35 33 32 28 22 17 15 13 10 11 10 9 8 8 9 11
6 6 7 7 6 12 9 8 4 6 8 5 7 6 4 4 7 6 6 8 9 6 10 18 29 17 22 9 7 7 3 4 4 7 6 5 8 10 12 9 10 11 14 15 9 7 6 6 6 7 9 10 11 11
4 2 4 7 7 7 11 10 8 8 6 8 5 7 5 5 7 6 5 6 6 6 10 13 12 16 13 9 8 6 5 4 7 7 4 5 9 10 6 3 0 2 6 8 6 5 5 4 5 6 9 11 12 13
3 2 3 7 6 6 10 13 11 10 7 6 5 4 6 9 9 7 9 6 4 6 8 9 5 7 7 9 7 5 7 7 3 4 5 8 16 6 5 4 5 5 6 6 5 3 4 5 5 7 9 10 12 14
3 2 2 5 6 5 8 10 11 11 7 5 8 6 7 6 6 10 13 10 9 7 7 12 12 11 9 9 6 6 7 5 5 6 13 8 8 5 6 7 7 6 6 5 4 4 5 6 7 9 14 17 17 20
4 2 2 4 4 7 6 7 13 11 8 6 6 5 8 13 10 6 7 9 11 7 8 8 7 8 6 6 6 7 5 6 6 9 2 8 3 3 5 5 6 9 8 8 8 9 10 11 14 17 19 21 22 24
5 1 3 7 7 6 6 6 10 13 6 7 7 7 9 9 13 15 15 16 9 6 7 9 5 5 7 4 5 4 4 6 5 3 9 7 6 3 1 3 4 4 7 9 10 12 13 14 16 19 21 21 21 21
6 5 6 4 6 8 7 5 7 8 7 7 9 20 22 19 16 13 6 5 4 5 4 5 5 6 6 7 14 6 5 5 11 10 10 7 4 5 4 3 4 8 10 12 14 15 16 17 19 20 20 20 19 22
4 5 4 5 5 6 8 8 6 6 10 18 16 20 20 18 20 21 20 13 9 10 10 7 8 7 7 7 10 4 6 10 12 11 11 10 6 5 3 5 6 11 11 17 18 18 18 18 15 15 17 20 18 19
5 5 5 4 6 5 4 6 9 7 14 19 20 23 25 22 17 16 17 16 16 14 7 6 7 8 11 16 16 21 19 10 6 11 16 16 13 13 15 15 17 18 21 22 21 15 13 16 17 15 15 16 17 18
9 10 10 10 7 6 5 7 9 8 8 16 21 21 20 19 20 20 17 18 19 20 15 7 11 21 22 24 25 26 27 27 25 24 24 22 21 21 20 15 16 16 17 17 17 16 14 12 12 13 14 16 17 18
10 10 12 10 11 14 9 8 8 8 9 14 19 21 19 17 21 21 22 22 23 23 16 22 25 28 30 32 31 31 32 29 28 28 28 27 24 21 20 21 20 19 18 17 16 14 16 13 12 13 14 15 15 17
7 9 9 9 9 8 10 14 13 16 18 20 19 16 12 13 16 18 18 19 21 21 22 23 26 25 25 27 26 25 28 29 29 29 29 28 25 23 20 18 18 20 20 18 14 13 11 11 12 13 14 15 16 16
9 8 7 7 7 7 9 16 22 24 12 13 20 17 14 19 22 19 10 18 21 21 19 21 25 25 28 31 33 32 27 27 27 27 28 27 24 20 18 15 17 17 15 12 10 9 9 12 15 15 16 16 15 16
9 5 4 5 10 6 9 14 19 20 19 16 16 18 15 17 19 18 10 20 21 19 22 20 18 21 24 25 24 26 27 23 22 24 24 23 19 15 12 12 11 10 11 9 8 9 10 12 13 13 13 14 14 15
5 7 6 9 8 8 9 13 15 15 16 14 15 11 7 8 9 12 13 18 21 22 17 13 14 18 25 26 22 19 18 17 20 20 18 20 14 15 11 8 8 7 9 8 7 8 8 12 13 12 13 14 16 18
9 10 9 7 9 14 14 16 15 17 15 18 17 21 20 11 15 8 8 15 17 12 9 12 17 20 23 19 17 14 12 14 16 14 16 16 15 12 10 8 6 8 11 9 9 9 10 12 12 13 14 15 16 17
8 10 14 21 21 19 12 17 17 10 11 15 10 10 10 6 7 11 20 18 12 10 10 14 16 17 19 16 14 13 10 10 10 7 7 9 11 12 9 7 7 9 13 10 10 11 11 11 12 13 15 15 15 16
12 9 14 22 22 22 16 14 15 17 15 23 21 18 15 7 9 16 10 11 11 13 17 17 17 19 19 15 14 11 8 7 6 7 7 7 8 8 9 10 10 11 10 10 11 10 10 11 12 13 14 16 17 17
17 22 20 13 20 19 22 18 18 25 25 23 13 14 16 25 23 22 21 19 16 20 20 19 18 21 20 15 12 10 9 6 5 6 7 6 5 7 9 9 9 9 10 11 10 10 11 11 12 13 14 16 16 16
23 23 22 22 16 18 28 29 28 27 25 26 27 27 28 28 26 22 21 21 21 21 24 26 25 18 19 13 9 9 10 11 12 9 7 6 7 13 11 10 11 11 10 10 10 11 11 11 12 12 12 14 15 17
17 15 22 23 20 29 32 31 30 30 29 29 29 28 30 30 31 28 23 24 27 26 25 23 20 16 15 14 11 9 8 10 11 12 13 14 14 14 12 10 9 9 9 9 9 10 10 10 10 11 12 14 15 17
16 18 18 16 17 27 25 17 19 22 24 25 27 27 28 27 29 28 25 25 28 29 27 22 17 16 15 14 15 14 14 14 11 11 11 11 11 9 8 8 8 8 8 8 9 9 9 9 10 11 13 14 15 17
13 15 14 15 16 17 16 10 10 15 21 23 25 25 26 25 25 27 24 26 26 23 17 15 14 17 18 15 14 12 12 10 8 8 7 7 7 7 7 7 7 7 7 8 8 8 8 9 10 11 12 13 14 16
Wind_Direction
208 197 191 188 198 196 209 226 202 190 203 213 220 226 227 222 222 218 234 247 226 243 266 262 252 251 245 246 246 28 292 180 185 236 262 250 259 267 272 272 281 263 264 271 239 260 272 344 328 342 329 325 337 327
181 185 184 182 198 204 208 226 192 193 204 212 227 231 223 220 226 226 230 243 254 250 257 272 245 250 249 248 243 227 239 185 210 250 247 287 265 262 271 275 248 258 269 297 304 297 311 300 290 311 315 314 318 317
154 147 156 166 162 158 167 168 174 199 211 230 232 208 214 223 224 234 224 243 265 268 283 263 264 269 249 239 241 241 237 238 247 247 279 276 256 271 270 272 280 269 270 251 257 266 281 305 302 298 308 320 324 309
171 163 155 146 153 180 182 183 186 193 200 208 217 218 215 217 220 231 233 250 239 272 280 281 261 256 248 235 229 225 232 240 243 249 230 245 257 258 270 283 284 277 293 287 283 282 290 287 299 314 317 316 320 320
187 182 178 173 167 156 169 193 200 208 214 218 220 223 229 231 230 237 245 245 252 227 292 295 284 275 254 217 219 232 231 236 233 229 233 243 249 268 271 273 267 267 265 262 263 276 243 306 316 316 312 308 321 320
156 174 186 184 189 185 181 182 186 195 206 213 219 222 213 216 219 222 265 253 249 234 260 283 306 257 247 214 223 227 228 224 223 223 248 250 251 259 269 265 271 272 254 266 262 276 289 290 296 303 291 299 305 306
157 153 152 167 195 203 203 204 200 199 200 209 215 209 210 210 210 203 223 179 214 210 210 266 258 196 211 211 219 223 221 214 223 237 239 251 254 228 259 266 268 272 280 271 276 275 278 285 303 294 294 298 299 300
184 189 183 172 160 163 191 212 217 218 217 215 215 208 213 218 222 229 227 241 248 189 218 258 269 236 194 185 170 192 204 204 216 235 253 253 259 241 254 256 272 263 262 263 272 271 273 284 296 289 290 297 300 302
195 206 215 213 204 198 182 182 212 217 222 218 210 206 228 217 224 240 238 236 229 222 238 202 246 296 174 217 182 176 187 207 225 217 227 237 228 228 243 260 268 258 258 268 270 268 267 278 281 281 290 297 303 305
191 185 188 204 209 211 207 206 222 209 192 193 182 200 220 210 209 183 178 200 213 219 226 244 236 239 207 215 207 208 194 230 226 219 216 230 248 251 260 267 270 268 266 269 267 264 262 249 263 277 287 297 303 305
184 202 212 215 212 210 211 213 213 178 164 167 194 214 195 189 187 207 226 201 199 216 208 235 234 241 237 239 241 230 226 252 250 215 208 227 251 259 246 274 274 262 252 239 242 258 257 256 266 276 288 295 300 305
172 203 214 218 209 213 207 208 198 165 193 200 191 203 194 201 212 214 204 212 219 224 198 218 221 217 229 207 236 229 236 239 243 159 213 244 258 256 197 240 216 118 147 172 193 213 234 255 268 282 292 297 301 301
219 239 246 199 198 194 196 200 195 201 204 201 203 202 197 211 231 230 195 208 211 207 204 194 186 188 177 194 216 237 224 235 234 214 232 245 261 224 206 200 167 155 156 167 184 213 248 264 274 281 287 292 296 301
192 190 168 183 193 179 192 203 196 210 208 210 194 220 221 206 232 218 239 248 260 268 238 216 208 188 194 187 226 238 225 238 236 239 252 250 258 201 167 175 176 179 188 202 214 244 261 270 278 281 279 292 299 299
179 183 196 192 188 199 196 214 205 209 216 230 220 234 222 238 255 270 289 286 260 267 276 258 250 231 211 219 212 229 228 229 222 243 340 64 100 171 150 178 196 199 208 222 242 262 273 284 290 294 296 292 289 290
209 236 209 223 212 218 224 238 226 228 235 228 235 248 254 257 254 257 255 262 278 305 292 255 250 254 237 229 229 240 253 225 253 30 84 79 70 31 242 225 221 241 244 254 261 276 283 291 298 301 300 299 298 294
221 225 214 215 233 247 247 242 231 215 245 225 226 237 251 267 271 269 265 266 227 289 283 282 247 231 319 255 243 233 271 341 42 32 13 352 332 299 263 252 256 260 270 271 273 281 286 296 300 300 304 307 295 295
200 225 234 241 250 267 249 229 233 249 234 238 251 244 248 259 267 262 260 274 277 265 258 257 298 253 247 282 296 341 336 334 330 333 313 287 291 299 310 316 298 276 271 278 285 283 284 293 296 301 298 298 299 305
224 213 254 257 250 256 252 232 223 252 247 249 252 251 255 259 254 262 268 269 272 266 253 246 238 249 259 265 288 299 304 299 290 317 314 301 287 293 304 299 296 287 289 281 278 274 271 269 281 289 294 297 296 298
247 242 253 254 252 250 250 244 227 250 256 255 249 253 255 260 262 257 261 264 255 249 240 238 257 269 281 289 296 298 294 296 297 297 291 285 286 288 293 289 286 282 275 271 271 273 275 282 286 288 288 286 291 297
258 259 262 254 247 233 250 250 237 257 279 264 262 262 259 257 255 253 254 251 249 246 255 264 271 278 282 283 280 279 280 281 280 280 283 291 293 290 283 284 276 271 262 255 253 255 269 278 282 284 286 290 293 296
270 254 252 243 237 242 247 240 253 261 262 264 270 271 268 266 263 258 259 252 248 254 270 279 282 286 289 287 283 281 283 282 277 276 277 278 277 276 276 272 267 258 252 247 247 256 263 274 278 278 290 295 297 299
255 240 240 235 234 240 258 250 250 251 248 260 267 265 262 261 261 263 253 255 263 264 265 279 285 288 290 288 285 281 274 272 273 274 272 267 266 266 263 262 258 246 245 243 244 258 268 267 282 293 298 302 302 303
224 229 232 232 218 246 247 251 254 259 260 247 251 260 260 262 261 252 254 258 259 273 282 284 287 291 301 296 280 269 267 272 273 272 271 261 251 244 244 238 231 235 233 235 248 258 271 284 292 299 300 303 305 306
204 216 217 231 236 229 241 249 251 257 260 261 258 255 263 269 266 264 264 271 276 282 276 278 299 301 312 302 283 279 280 271 261 263 261 242 242 234 226 211 216 220 244 255 259 266 278 291 296 299 301 306 307 310
213 210 208 228 236 242 247 253 246 243 253 257 260 265 269 272 264 252 260 268 276 253 269 295 304 303 308 299 287 285 282 275 282 251 245 243 219 216 213 210 225 257 272 256 262 276 285 290 295 300 305 309 310 312
213 212 222 236 254 264 250 257 258 258 253 257 256 255 256 252 256 262 263 262 263 246 296 302 304 297 301 293 286 284 287 274 233 210 225 214 206 211 209 219 237 232 260 277 278 281 285 290 297 303 307 311 313 312
215 230 233 241 243 247 253 252 259 263 264 269 265 256 251 245 252 261 286 295 274 289 305 300 295 295 304 281 275 282 286 275 236 241 244 240 238 238 249 258 257 259 268 278 284 287 290 295 301 306 309 312 315 318
232 233 239 244 248 250 251 252 255 257 254 259 264 262 261 258 269 276 277 278 280 289 296 308 302 286 296 281 274 274 269 245 223 234 235 234 242 257 256 261 262 264 276 283 285 287 293 300 304 308 311 314 319 324
238 238 243 244 242 244 248 248 255 257 258 264 271 277 273 271 269 269 270 272 272 275 290 299 301 274 276 265 256 260 253 241 226 224 251 251 231 248 271 267 265 268 273 279 286 294 301 306 312 318 320 320 322 323
243 242 237 243 248 253 255 257 256 259 262 262 262 265 267 272 278 280 273 264 271 281 289 287 279 269 250 242 237 240 241 260 246 242 247 255 261 265 268 264 261 264 271 279 287 294 300 308 313 315 318 322 326 330
229 235 238 246 251 258 264 261 256 255 258 253 253 257 261 260 258 260 260 262 266 271 277 280 267 259 246 226 226 232 232 247 261 258 256 258 259 257 252 254 259 266 275 283 289 294 301 307 312 316 322 327 332 336
233 239 250 261 267 270 261 225 247 256 251 251 253 253 253 254 261 266 264 261 262 263 259 255 239 229 233 234 233 239 244 249 253 251 248 248 248 248 251 258 266 273 280 285 290 296 301 307 312 318 323 330 336 340